DAL1014 KBDL-KSYR

Flight info

Callsign DAL1014
Flight time 0h 42m
Altitude 24000
Route ALB SYR
Aircraft B764/H-SDE3FGHIM3RWXY/LB1

Departure

Time 2026-04-28 20:42
Airport Bradley International Airport (KBDL)

Arrival

Time 2026-04-28 21:25
Airport Syracuse Hancock International Airport (KSYR)
Time Latitude Longitude Altitude Speed Heading
2026-04-28 20:11 41.93219 -72.68375 190 ft 0 kts 198°
2026-04-28 20:27 41.93230 -72.68371 190 ft 2 kts 198°
2026-04-28 20:27 41.93239 -72.68366 190 ft 2 kts 196°
2026-04-28 20:27 41.93254 -72.68363 190 ft 2 kts 179°
2026-04-28 20:28 41.93269 -72.68366 190 ft 2 kts 166°
2026-04-28 20:28 41.93283 -72.68372 190 ft 2 kts 153°
2026-04-28 20:28 41.93296 -72.68382 190 ft 2 kts 140°
2026-04-28 20:28 41.93301 -72.68390 190 ft 1 kts 133°
2026-04-28 20:29 41.93303 -72.68392 190 ft 0 kts 133°
2026-04-28 20:33 41.93303 -72.68391 190 ft 0 kts 133°
2026-04-28 20:33 41.93284 -72.68366 190 ft 6 kts 133°
2026-04-28 20:33 41.93264 -72.68301 190 ft 8 kts 83°
2026-04-28 20:34 41.93305 -72.68268 190 ft 8 kts 336°
2026-04-28 20:34 41.93359 -72.68333 190 ft 12 kts 314°
2026-04-28 20:34 41.93428 -72.68428 190 ft 16 kts 316°
2026-04-28 20:34 41.93516 -72.68546 190 ft 19 kts 314°
2026-04-28 20:35 41.93612 -72.68677 189 ft 17 kts 314°
2026-04-28 20:35 41.93648 -72.68725 188 ft 5 kts 323°
2026-04-28 20:35 41.93685 -72.68733 188 ft 4 kts 20°
2026-04-28 20:35 41.93712 -72.68702 189 ft 5 kts 44°
2026-04-28 20:36 41.93748 -72.68658 188 ft 9 kts 41°
2026-04-28 20:36 41.93818 -72.68575 188 ft 16 kts 41°
2026-04-28 20:36 41.93902 -72.68474 188 ft 16 kts 42°
2026-04-28 20:36 41.93988 -72.68369 187 ft 16 kts 42°
2026-04-28 20:37 41.94075 -72.68261 185 ft 17 kts 43°
2026-04-28 20:37 41.94165 -72.68150 183 ft 17 kts 42°
2026-04-28 20:37 41.94254 -72.68043 183 ft 16 kts 41°
2026-04-28 20:37 41.94338 -72.67939 183 ft 16 kts 44°
2026-04-28 20:38 41.94415 -72.67837 183 ft 15 kts 44°
2026-04-28 20:38 41.94490 -72.67738 183 ft 14 kts 44°
2026-04-28 20:38 41.94561 -72.67643 183 ft 14 kts 44°
2026-04-28 20:38 41.94636 -72.67547 181 ft 15 kts 43°
2026-04-28 20:39 41.94714 -72.67447 179 ft 15 kts 44°
2026-04-28 20:39 41.94796 -72.67340 177 ft 16 kts 44°
2026-04-28 20:39 41.94881 -72.67228 174 ft 18 kts 44°
2026-04-28 20:39 41.94959 -72.67144 170 ft 0 kts 12°
2026-04-28 20:40 41.94964 -72.67143 170 ft 3 kts 10°
2026-04-28 20:40 41.94997 -72.67150 170 ft 6 kts 328°
2026-04-28 20:41 41.95036 -72.67198 171 ft 8 kts 313°
2026-04-28 20:41 41.95038 -72.67252 172 ft 6 kts 229°
2026-04-28 20:41 41.94976 -72.67334 174 ft 25 kts 224°
2026-04-28 20:41 41.94721 -72.67664 183 ft 77 kts 224°
2026-04-28 20:42 41.94211 -72.68335 183 ft 126 kts 224°
2026-04-28 20:42 41.93478 -72.69284 254 ft 161 kts 222°
2026-04-28 20:42 41.92645 -72.70373 594 ft 175 kts 223°
2026-04-28 20:42 41.91765 -72.71544 1077 ft 178 kts 223°
2026-04-28 20:43 41.90859 -72.72749 1386 ft 192 kts 223°
2026-04-28 20:43 41.89852 -72.74084 1603 ft 217 kts 223°
2026-04-28 20:43 41.88959 -72.75908 1669 ft 257 kts 252°
2026-04-28 20:43 41.88921 -72.78333 2426 ft 266 kts 285°
2026-04-28 20:44 41.89791 -72.80479 3238 ft 271 kts 314°
2026-04-28 20:44 41.91349 -72.81812 4103 ft 273 kts 343°
2026-04-28 20:44 41.93218 -72.82001 5004 ft 272 kts
2026-04-28 20:44 41.95075 -72.81632 5903 ft 273 kts
2026-04-28 20:45 41.96930 -72.81278 6836 ft 274 kts
2026-04-28 20:45 41.98848 -72.80930 7543 ft 283 kts
2026-04-28 20:45 42.00837 -72.80969 8369 ft 287 kts 352°
2026-04-28 20:45 42.02762 -72.81436 9260 ft 288 kts 345°
2026-04-28 20:46 42.04707 -72.82146 10096 ft 291 kts 341°
2026-04-28 20:46 42.06687 -72.83006 10577 ft 309 kts 339°
2026-04-28 20:46 42.08815 -72.84047 10767 ft 339 kts 338°
2026-04-28 20:46 42.11064 -72.85198 11679 ft 345 kts 337°
2026-04-28 20:47 42.13421 -72.86437 12628 ft 352 kts 336°
2026-04-28 20:47 42.15728 -72.87667 13574 ft 357 kts 336°
2026-04-28 20:47 42.18059 -72.88923 14452 ft 363 kts 336°
2026-04-28 20:47 42.20437 -72.90207 15300 ft 370 kts 336°
2026-04-28 20:48 42.22875 -72.91530 16066 ft 379 kts 337°
2026-04-28 20:48 42.25348 -72.92875 16934 ft 384 kts 337°
2026-04-28 20:48 42.27901 -72.94263 17623 ft 395 kts 337°
2026-04-28 20:48 42.30509 -72.95694 18653 ft 397 kts 336°
2026-04-28 20:49 42.33076 -72.97116 19662 ft 398 kts 336°
2026-04-28 20:49 42.35628 -72.98534 20754 ft 396 kts 335°
2026-04-28 20:49 42.38257 -72.99994 21683 ft 398 kts 334°
2026-04-28 20:49 42.40853 -73.01440 22558 ft 400 kts 334°
2026-04-28 20:50 42.43460 -73.02891 23447 ft 401 kts 333°
2026-04-28 20:50 42.46111 -73.04373 23960 ft 410 kts 334°
2026-04-28 20:50 42.48835 -73.05894 24112 ft 418 kts 333°
2026-04-28 20:50 42.51623 -73.07454 24120 ft 427 kts 334°
2026-04-28 20:51 42.54400 -73.09004 24115 ft 427 kts 334°
2026-04-28 20:51 42.57137 -73.10535 24111 ft 425 kts 334°
2026-04-28 20:51 42.59937 -73.12102 24116 ft 424 kts 333°
2026-04-28 20:51 42.61794 -73.13143 24120 ft 425 kts 334°
2026-04-28 20:52 42.65524 -73.15237 24122 ft 427 kts 334°
2026-04-28 20:52 42.68330 -73.16815 24119 ft 428 kts 334°
2026-04-28 20:52 42.71151 -73.18399 24117 ft 428 kts 334°
2026-04-28 20:52 42.73943 -73.19973 24120 ft 428 kts 334°
2026-04-28 20:53 42.79585 -73.23152 24115 ft 427 kts 334°
2026-04-28 20:53 42.82404 -73.24745 24117 ft 428 kts 334°
2026-04-28 20:53 42.85169 -73.26307 24115 ft 430 kts 334°
2026-04-28 20:54 42.88008 -73.27914 24115 ft 431 kts 334°
2026-04-28 20:54 42.90743 -73.29592 24108 ft 427 kts 328°
2026-04-28 20:54 42.93225 -73.31838 24117 ft 422 kts 317°
2026-04-28 20:54 42.95317 -73.34589 24115 ft 418 kts 308°
2026-04-28 20:55 42.97013 -73.37823 24116 ft 416 kts 297°
2026-04-28 20:55 42.98225 -73.41359 24114 ft 413 kts 288°
2026-04-28 20:55 42.98938 -73.45086 24106 ft 409 kts 278°
2026-04-28 20:55 42.99323 -73.48915 24112 ft 408 kts 275°
2026-04-28 20:56 42.99598 -73.52769 24102 ft 408 kts 274°
2026-04-28 20:56 42.99799 -73.56623 24105 ft 407 kts 272°
2026-04-28 20:56 42.99959 -73.60478 24104 ft 409 kts 272°
2026-04-28 20:56 43.00092 -73.64382 24106 ft 410 kts 272°
2026-04-28 20:57 43.00206 -73.68235 24109 ft 410 kts 271°
2026-04-28 20:57 43.00309 -73.72118 24103 ft 410 kts 271°
2026-04-28 20:57 43.00405 -73.76002 24105 ft 410 kts 271°
2026-04-28 20:57 43.00496 -73.79869 24095 ft 410 kts 271°
2026-04-28 20:58 43.00583 -73.83769 24108 ft 410 kts 271°
2026-04-28 20:58 43.00667 -73.87637 24108 ft 411 kts 270°
2026-04-28 20:58 43.00748 -73.91521 24107 ft 411 kts 270°
2026-04-28 20:58 43.00830 -73.95407 24104 ft 411 kts 270°
2026-04-28 20:59 43.00908 -73.99313 24109 ft 411 kts 271°
2026-04-28 20:59 43.00985 -74.03214 24104 ft 410 kts 270°
2026-04-28 20:59 43.01060 -74.07053 24110 ft 410 kts 270°
2026-04-28 20:59 43.01135 -74.10952 24102 ft 410 kts 271°
2026-04-28 21:00 43.01208 -74.14827 24096 ft 410 kts 270°
2026-04-28 21:00 43.01279 -74.18722 24097 ft 410 kts 270°
2026-04-28 21:00 43.01350 -74.22623 24099 ft 411 kts 270°
2026-04-28 21:00 43.01419 -74.26482 24091 ft 411 kts 270°
2026-04-28 21:01 43.01487 -74.30377 24093 ft 410 kts 270°
2026-04-28 21:01 43.01553 -74.34243 24090 ft 410 kts 270°
2026-04-28 21:01 43.01618 -74.38133 24094 ft 410 kts 270°
2026-04-28 21:01 43.01681 -74.42008 24091 ft 411 kts 270°
2026-04-28 21:02 43.01745 -74.45939 24092 ft 412 kts 270°
2026-04-28 21:02 43.01805 -74.49804 24085 ft 411 kts 270°
2026-04-28 21:02 43.01866 -74.53729 24087 ft 410 kts 270°
2026-04-28 21:02 43.01924 -74.57571 24078 ft 409 kts 269°
2026-04-28 21:03 43.01980 -74.61417 24080 ft 409 kts 269°
2026-04-28 21:03 43.02036 -74.65340 24085 ft 409 kts 269°
2026-04-28 21:03 43.02090 -74.69182 24093 ft 409 kts 269°
2026-04-28 21:03 43.02143 -74.73039 24098 ft 409 kts 269°
2026-04-28 21:04 43.02195 -74.76957 24093 ft 409 kts 269°
2026-04-28 21:04 43.02245 -74.80830 24097 ft 408 kts 269°
2026-04-28 21:04 43.02295 -74.84681 24099 ft 408 kts 268°
2026-04-28 21:04 43.02342 -74.88590 24096 ft 409 kts 268°
2026-04-28 21:05 43.02390 -74.92450 24099 ft 410 kts 269°
2026-04-28 21:05 43.02434 -74.96318 24098 ft 410 kts 268°
2026-04-28 21:05 43.02478 -75.00242 24093 ft 409 kts 268°
2026-04-28 21:05 43.02521 -75.04076 24098 ft 409 kts 269°
2026-04-28 21:06 43.02563 -75.07979 24099 ft 408 kts 268°
2026-04-28 21:06 43.02602 -75.11827 24091 ft 408 kts 268°
2026-04-28 21:06 43.02666 -75.15708 24089 ft 408 kts 271°
2026-04-28 21:06 43.03073 -75.19544 24090 ft 405 kts 278°
2026-04-28 21:07 43.03568 -75.23243 24083 ft 399 kts 277°
2026-04-28 21:07 43.04058 -75.26944 24078 ft 396 kts 277°
2026-04-28 21:07 43.04544 -75.30637 24081 ft 397 kts 277°
2026-04-28 21:07 43.05038 -75.34396 24082 ft 402 kts 277°
2026-04-28 21:08 43.05541 -75.38210 23888 ft 408 kts 277°
2026-04-28 21:08 43.06034 -75.41962 23867 ft 398 kts 277°
2026-04-28 21:08 43.06517 -75.45622 23809 ft 383 kts 277°
2026-04-28 21:08 43.06981 -75.49172 23393 ft 378 kts 277°
2026-04-28 21:09 43.07437 -75.52679 22970 ft 373 kts 277°
2026-04-28 21:09 43.07889 -75.56155 22476 ft 368 kts 277°
2026-04-28 21:09 43.08334 -75.59590 21555 ft 365 kts 278°
2026-04-28 21:09 43.08771 -75.62959 20750 ft 358 kts 278°
2026-04-28 21:10 43.09193 -75.66223 20029 ft 350 kts 277°
2026-04-28 21:10 43.09611 -75.69470 19225 ft 344 kts 278°
2026-04-28 21:10 43.10019 -75.72646 18629 ft 339 kts 277°
2026-04-28 21:10 43.10419 -75.75773 18107 ft 333 kts 278°
2026-04-28 21:11 43.10817 -75.78870 17577 ft 331 kts 278°
2026-04-28 21:11 43.11211 -75.81963 17080 ft 332 kts 278°
2026-04-28 21:11 43.11602 -75.85036 16550 ft 332 kts 278°
2026-04-28 21:11 43.11993 -75.88107 15990 ft 327 kts 278°
2026-04-28 21:12 43.12377 -75.91131 15526 ft 325 kts 278°
2026-04-28 21:12 43.12763 -75.94183 15013 ft 325 kts 279°
2026-04-28 21:12 43.13143 -75.97195 14497 ft 320 kts 279°
2026-04-28 21:12 43.13518 -76.00173 14055 ft 319 kts 279°
2026-04-28 21:13 43.13891 -76.03133 13546 ft 318 kts 279°
2026-04-28 21:13 43.14263 -76.06099 13082 ft 316 kts 279°
2026-04-28 21:13 43.14631 -76.09035 12619 ft 312 kts 279°
2026-04-28 21:13 43.15001 -76.11964 12190 ft 311 kts 281°
2026-04-28 21:14 43.15675 -76.14713 11717 ft 310 kts 298°
2026-04-28 21:14 43.16978 -76.17040 11241 ft 313 kts 315°
2026-04-28 21:14 43.18794 -76.18710 10659 ft 314 kts 333°
2026-04-28 21:14 43.20898 -76.19484 10110 ft 315 kts 351°
2026-04-28 21:15 43.23071 -76.19325 9648 ft 308 kts
2026-04-28 21:15 43.25121 -76.18909 9291 ft 293 kts
2026-04-28 21:15 43.27093 -76.18546 9067 ft 279 kts
2026-04-28 21:15 43.29007 -76.18201 8898 ft 274 kts
2026-04-28 21:16 43.30880 -76.17870 8706 ft 276 kts
2026-04-28 21:16 43.32823 -76.17529 8509 ft 280 kts
2026-04-28 21:16 43.34775 -76.17184 8296 ft 282 kts
2026-04-28 21:16 43.36701 -76.16846 8062 ft 280 kts
2026-04-28 21:17 43.38642 -76.16563 7681 ft 280 kts 354°
2026-04-28 21:17 43.40498 -76.17158 7182 ft 270 kts 326°
2026-04-28 21:17 43.41853 -76.18794 6803 ft 259 kts 297°
2026-04-28 21:17 43.42415 -76.21072 6537 ft 248 kts 268°
2026-04-28 21:18 43.42050 -76.23334 6312 ft 244 kts 238°
2026-04-28 21:18 43.40886 -76.24993 6124 ft 248 kts 210°
2026-04-28 21:18 43.39199 -76.25652 5892 ft 252 kts 186°
2026-04-28 21:18 43.37427 -76.25738 5604 ft 247 kts 184°
2026-04-28 21:19 43.35726 -76.25830 5268 ft 242 kts 185°
2026-04-28 21:19 43.34050 -76.25925 4920 ft 242 kts 186°
2026-04-28 21:19 43.32397 -76.26260 4585 ft 235 kts 195°
2026-04-28 21:19 43.30867 -76.26936 4260 ft 230 kts 201°
2026-04-28 21:20 43.29358 -76.27831 3909 ft 231 kts 205°
2026-04-28 21:20 43.27932 -76.28809 3572 ft 228 kts 206°
2026-04-28 21:20 43.26452 -76.29387 3222 ft 220 kts 178°
2026-04-28 21:20 43.25045 -76.28758 2990 ft 214 kts 149°
2026-04-28 21:21 43.23918 -76.27488 2823 ft 203 kts 145°
2026-04-28 21:21 43.22890 -76.26244 2637 ft 194 kts 143°
2026-04-28 21:21 43.21928 -76.25007 2523 ft 181 kts 142°
2026-04-28 21:21 43.21072 -76.23863 2537 ft 162 kts 143°
2026-04-28 21:22 43.20330 -76.22849 2574 ft 145 kts 143°
2026-04-28 21:22 43.19586 -76.21837 2609 ft 153 kts 143°
2026-04-28 21:22 43.18854 -76.20819 2763 ft 155 kts 142°
2026-04-28 21:22 43.18318 -76.20082 2634 ft 167 kts 141°
2026-04-28 21:23 43.17301 -76.18636 2468 ft 157 kts 142°
2026-04-28 21:23 43.16545 -76.17570 2233 ft 153 kts 141°
2026-04-28 21:23 43.15797 -76.16508 1910 ft 153 kts 140°
2026-04-28 21:23 43.15082 -76.15424 1642 ft 146 kts 136°
2026-04-28 21:24 43.14424 -76.14420 1270 ft 137 kts 139°
2026-04-28 21:24 43.13738 -76.13522 882 ft 133 kts 140°
2026-04-28 21:24 43.13083 -76.12643 653 ft 131 kts 137°
2026-04-28 21:24 43.12427 -76.11700 519 ft 139 kts 135°
2026-04-28 21:25 43.11747 -76.10725 437 ft 131 kts 135°
2026-04-28 21:25 43.11224 -76.09999 413 ft 72 kts 134°
2026-04-28 21:25 43.11022 -76.09715 410 ft 12 kts 134°
2026-04-28 21:25 43.10954 -76.09631 409 ft 13 kts 156°
2026-04-28 21:26 43.10911 -76.09694 408 ft 11 kts 268°
2026-04-28 21:26 43.10930 -76.09817 410 ft 14 kts 300°
2026-04-28 21:26 43.11000 -76.09931 412 ft 15 kts 313°
2026-04-28 21:26 43.11075 -76.10038 414 ft 15 kts 314°
2026-04-28 21:27 43.11154 -76.10149 416 ft 16 kts 314°
2026-04-28 21:27 43.11240 -76.10272 418 ft 18 kts 314°
2026-04-28 21:27 43.11335 -76.10408 420 ft 20 kts 314°
2026-04-28 21:27 43.11440 -76.10559 422 ft 22 kts 313°
2026-04-28 21:28 43.11541 -76.10702 423 ft 20 kts 314°
2026-04-28 21:28 43.11610 -76.10801 423 ft 10 kts 307°
2026-04-28 21:28 43.11595 -76.10886 423 ft 10 kts 216°
2026-04-28 21:28 43.11541 -76.10950 423 ft 0 kts 224°